Погода в Баменде

Камерун     5°57′32″N   10°09′13″E
темп.,
°C
ветер,
м/с
пор.,
м/с
влажн.,
%
обл.,
%
осадки,
мм/ч
давл.,
гПа
погр.,
м
17 апреля, сб
сб1701:00+18ююв128887 0.3 101245
04:00+18юв1184100 0.0 101011
07:00+19ю118099 0.0 101324
10:00+25с2260100 0.5 1012671
13:00+23сз2369100 2.3 1010588
16:00+21зсз2378100 2.8 1008162
19:00+19сз2488100 4.4 1011101
22:00+18з1292100 0.9 101461
18 апреля, вс
вс1801:00+17ююв3596100 5.1 1014303
04:00+17ююв1191100 0.4 101341
07:00+18ююв0185100 0.5 101412
10:00+22ссв0171100 0.0 1015259
13:00+22ссз1272100 0.4 1013382
16:00+23сз227084 2.6 1011263
19:00+19зсз2285100 3.8 101225
22:00+18юв0187100 0.1 101512
19 апреля, пн
пн1901:00+19юв1186100 0.1 101320
04:00+17ююв1186100 0.4 101314
07:00+18юв238871 0.6 101573
10:00+25юв226062 0.1 1014805
13:00+27в125270 1.8 10121580
16:00+22зсз227497 2.1 101092
19:00+20зюз118292 5.8 101214
22:00+18зюз11888 1.7 101414
20 апреля, вт
вт2001:00+18ю118991 1.7 101312
04:00+18ююв2290100 0.1 101244
07:00+18юв119090 0.1 101435
10:00+24юв126587 0.8 1013627
13:00+25с126199 4.6 10111150
16:00+23сз1275100 4.7 1010178
19:00+20ю118399 6.9 101214
22:00+18ююв119097 0.5 101419
21 апреля, ср
ср2101:00+18ююв1187100 0.6 101218
04:00+18юв1190100 0.6 101214
07:00+18з118875 1.1 101439
10:00+21св3377100 2.6 1015411
13:00+20юв2380100 5.6 1014459
16:00+22з116996 0.1 1011697
19:00+19юз118497 0.3 101211
22:00+18ю1187100 0.2 101513